Wind_Speed
24 22 20 19 18 19 21 21 21 22 24 26 27 28 27 24 24 24 24 24 25 25 25 25 25 24 25 26 26 27 27 28 27 27 27 27 27 28 29 29 29 30 30 31
26 24 22 21 20 21 22 22 21 21 23 26 25 26 26 26 27 26 25 25 27 27 26 26 26 25 26 26 27 27 27 27 28 28 29 29 29 30 30 30 31 32 32 32
25 22 22 22 20 20 20 20 21 21 24 27 28 29 30 30 29 28 27 28 28 27 27 27 26 26 26 27 27 27 28 29 29 30 31 31 31 32 31 32 33 32 33 33
25 25 25 22 20 22 22 21 22 24 25 28 28 29 31 32 30 29 28 28 29 28 28 28 28 28 28 28 29 29 30 31 31 32 32 32 33 33 33 33 33 33 33 33
26 26 25 24 23 23 22 23 25 26 27 28 27 28 30 31 29 28 29 29 29 29 29 30 30 30 31 31 31 31 32 32 33 33 33 33 33 33 33 33 33 34 34 35
26 26 24 25 24 24 24 26 27 27 28 29 28 29 30 30 30 29 29 30 30 30 30 30 30 31 31 32 32 33 33 34 34 34 34 34 34 34 34 34 35 35 36 36
26 26 24 26 27 26 26 26 27 27 28 29 29 29 30 31 31 31 31 31 32 31 31 31 31 31 31 32 33 33 34 34 34 34 34 34 33 34 34 35 35 36 36 36
25 24 25 27 28 29 30 29 29 28 29 30 30 31 32 33 32 31 31 32 32 32 32 32 32 32 33 33 33 33 34 34 34 34 34 34 34 35 35 35 36 36 36 37
26 26 28 29 31 30 30 31 31 31 31 31 32 33 34 34 33 33 32 32 32 33 33 33 33 33 33 33 33 34 34 34 34 34 34 34 34 34 34 35 36 36 36 36
27 28 30 31 31 31 31 31 31 31 33 33 33 33 34 34 33 33 32 32 33 33 33 32 32 32 32 33 33 33 33 33 33 33 34 34 34 34 34 35 35 35 35 36
30 30 31 32 32 31 30 29 30 31 31 32 32 33 32 33 33 33 33 33 33 34 32 32 32 32 32 32 33 33 33 33 33 33 33 33 33 34 34 34 35 35 35 35
32 33 31 32 31 31 31 31 31 30 31 32 33 33 33 33 33 34 34 33 33 32 32 32 32 32 32 33 33 32 33 32 32 32 32 32 32 33 33 34 34 34 34 35
31 31 32 32 32 30 31 32 32 31 32 32 33 33 33 33 33 33 33 33 33 33 33 33 33 33 33 32 33 32 32 32 32 32 32 32 32 33 33 33 33 33 33 33
31 31 31 31 31 30 30 31 30 30 31 31 33 33 33 33 32 32 32 32 33 33 33 33 33 33 33 33 33 32 32 31 31 32 32 32 32 33 33 33 32 32 33 32
32 31 32 31 31 30 30 30 30 30 30 31 31 31 32 33 32 32 32 33 33 33 33 33 33 33 34 34 33 32 32 32 32 32 32 32 32 32 33 32 32 32 31 31
32 32 32 31 30 30 30 31 31 30 30 30 31 31 31 32 31 31 32 32 32 33 33 33 33 33 33 33 32 31 31 31 32 32 32 31 31 31 31 31 31 31 31 30
33 32 32 31 30 31 31 31 31 30 30 30 30 30 30 30 30 31 31 32 32 32 32 32 32 31 31 31 31 31 31 31 31 30 31 31 31 30 30 29 29 29 29 29
32 32 32 31 31 30 30 30 30 29 29 29 29 29 30 30 30 30 30 30 31 31 31 31 30 30 30 30 31 31 31 30 30 30 30 30 29 28 27 28 27 27 26 26
30 30 30 30 31 30 29 29 29 29 29 29 29 29 28 28 28 29 29 30 30 31 30 30 30 30 29 29 30 30 30 30 29 29 29 29 27 26 26 26 26 25 25 25
27 27 28 29 29 29 28 29 28 28 28 28 28 28 27 28 28 29 30 30 30 30 30 30 31 30 29 30 29 29 29 28 28 27 27 27 26 25 25 25 25 24 24 24
25 26 26 27 27 27 28 28 28 27 27 28 28 28 28 29 29 30 30 30 30 30 29 29 29 29 29 29 28 28 28 27 27 27 26 26 26 25 25 25 24 24 24 23
23 24 25 25 26 26 27 27 27 27 27 27 28 29 29 29 29 30 30 29 29 28 27 27 27 27 27 26 26 26 26 26 27 26 26 25 24 24 24 23 23 23 23 23
23 23 24 24 25 26 26 27 27 26 26 26 26 26 27 28 28 29 28 27 27 27 27 27 26 26 26 25 25 25 25 25 26 25 24 24 23 23 23 23 23 23 23 23
22 23 23 24 24 25 25 25 26 25 26 26 25 26 26 26 27 26 26 26 26 26 26 26 26 26 26 25 25 25 24 24 24 23 23 22 23 23 23 23 23 23 23 23
20 21 21 22 22 23 24 22 23 24 25 24 24 24 24 24 24 24 24 25 25 26 25 26 26 25 25 24 24 24 23 23 23 23 23 23 23 24 24 24 24 23 22 23
19 19 20 20 20 19 19 19 20 21 20 20 21 21 22 23 23 23 23 23 24 24 25 25 25 24 24 24 23 23 22 22 23 24 24 23 24 25 25 25 24 24 23 24
19 18 18 18 19 19 19 19 18 18 18 19 19 20 21 22 22 22 22 23 23 23 23 23 23 23 23 22 22 23 23 23 23 23 24 24 24 25 25 24 24 24 24 24
Wind_Direction
242 246 246 251 254 253 254 254 259 260 263 266 272 276 279 280 283 286 288 289 288 288 292 295 294 295 295 295 296 297 297 297 298 299 300 300 300 300 301 300 299 300 301 302
245 244 245 250 253 256 257 258 258 261 265 271 274 276 276 278 283 287 289 288 288 288 289 291 291 292 293 293 294 296 297 297 296 296 297 298 298 299 299 299 298 299 300 300
245 244 247 250 251 255 258 259 260 260 265 271 272 275 276 276 280 284 286 288 287 286 285 286 289 290 291 291 293 294 295 296 296 296 296 297 297 297 297 298 298 299 299 299
249 247 247 250 253 252 254 254 257 259 262 267 267 270 273 276 279 283 285 286 286 286 285 286 287 288 290 290 292 293 294 295 296 296 296 297 297 297 297 298 299 300 300 301
246 248 251 254 257 258 257 254 254 258 262 267 268 273 274 275 279 282 284 285 287 287 286 286 287 288 288 289 290 292 293 294 296 296 296 296 297 298 298 298 299 299 301 301
249 249 251 256 258 258 261 261 263 264 266 268 268 270 273 276 280 284 286 287 288 287 285 285 287 289 289 289 291 291 292 293 295 296 296 297 297 298 298 299 299 300 301 301
250 250 253 257 258 258 258 259 263 266 268 268 268 270 274 277 280 284 285 285 286 287 286 285 287 289 289 290 290 290 291 292 293 295 296 296 297 297 298 298 299 300 300 301
250 250 251 254 257 257 259 261 264 268 269 268 270 271 273 277 280 282 283 285 286 286 286 287 287 288 289 289 290 289 290 291 293 294 294 295 296 297 298 299 299 299 300 300
245 246 249 252 254 257 260 261 264 267 267 268 271 272 273 276 280 282 282 283 285 285 287 287 287 289 290 291 290 289 289 291 291 293 294 295 296 297 298 298 299 300 300 300
245 245 250 255 257 259 261 263 265 266 267 269 271 273 275 277 279 281 281 282 284 286 287 287 288 289 290 291 291 291 291 292 292 293 294 295 296 297 298 298 299 300 300 300
248 248 250 255 258 261 263 265 267 267 267 268 271 272 274 278 279 280 282 285 285 286 287 288 287 287 288 290 290 291 292 292 293 294 295 295 296 297 297 299 300 300 300 300
253 254 255 257 259 260 263 266 267 268 269 270 272 273 275 277 279 280 282 283 283 286 287 287 286 287 288 290 290 290 292 293 294 294 295 296 298 299 299 300 300 301 301 301
257 257 260 260 261 262 264 267 268 268 269 271 273 275 276 277 279 280 281 281 283 285 287 287 287 287 288 289 290 291 292 293 293 294 295 297 299 300 300 300 300 301 302 302
257 258 259 260 261 264 266 267 269 270 272 273 274 275 277 277 278 280 281 282 283 285 286 288 289 289 288 290 290 291 292 293 293 294 295 296 298 301 302 301 302 303 303 303
256 259 260 261 261 265 268 269 270 272 273 274 276 276 277 278 280 281 281 282 283 283 285 287 288 289 288 289 290 291 292 293 294 296 296 296 299 301 303 303 304 305 306 305
258 260 262 262 262 264 267 269 270 272 274 275 275 276 278 279 280 280 282 283 284 283 284 285 287 288 288 289 289 292 293 294 295 296 297 297 299 301 302 303 304 305 306 306
259 260 261 264 264 265 267 269 271 273 275 275 276 278 278 280 281 282 283 284 285 285 285 285 287 287 288 289 291 292 294 293 295 296 297 298 299 301 302 303 304 305 305 306
260 261 261 263 263 264 266 268 271 273 275 276 276 277 277 278 280 282 283 284 284 286 286 286 288 289 289 290 291 292 294 295 294 295 295 298 298 300 302 303 304 304 306 307
262 262 262 262 264 264 265 268 270 271 273 274 275 276 276 277 279 281 284 286 287 288 288 289 290 290 289 290 291 291 293 295 296 295 296 298 300 300 301 303 303 303 305 307
264 264 263 263 263 263 265 268 270 271 272 274 275 276 277 279 280 281 285 287 288 289 289 290 290 289 290 290 290 291 293 296 298 297 297 297 298 299 300 302 302 303 305 306
264 264 263 264 264 264 264 265 268 270 272 274 275 276 277 278 280 282 285 287 288 289 289 289 290 290 291 291 290 291 292 295 296 297 296 297 298 298 299 300 301 303 304 305
264 265 265 265 265 265 264 265 267 269 271 273 275 275 276 279 281 283 285 286 287 288 289 289 290 290 289 289 292 293 294 295 296 296 296 297 297 298 298 299 301 303 304 304
264 265 265 266 266 266 265 265 266 268 271 274 275 276 278 280 281 283 284 285 286 288 288 289 290 290 290 290 291 292 293 296 297 296 298 299 299 300 301 301 301 302 302 303
264 266 266 267 269 269 269 266 265 268 271 273 275 278 280 282 282 283 284 286 287 287 287 288 290 292 293 292 293 293 293 295 296 295 297 298 299 300 301 302 301 300 300 301
264 267 268 269 271 270 270 270 268 269 271 272 275 278 282 284 284 285 286 287 287 287 288 289 290 291 291 292 292 293 294 296 297 296 298 298 299 299 299 298 298 299 299 300
268 270 273 273 272 273 274 274 273 273 273 274 276 279 283 285 286 287 287 289 290 290 291 291 291 290 290 291 291 292 294 296 297 298 298 298 299 301 301 300 299 298 298 298
271 272 273 276 277 276 277 279 280 281 281 281 282 283 286 288 288 289 290 291 292 292 293 293 292 291 292 293 294 294 295 297 297 298 299 300 300 301 300 300 299 300 300 300
Height
5872 5873 5875 5876 5877 5879 5879 5879 5880 5881 5879 5878 5876 5875 5874 5872 5872 5871 5870 5869 5868 5867 5865 5864 5863 5862 5861 5859 5857 5856 5854 5852 5850 5848 5846 5844 5842 5839 5837 5835 5832 5830 5827 5824
5866 5868 5869 5870 5872 5873 5874 5874 5874 5875 5873 5871 5869 5868 5868 5867 5867 5866 5865 5864 5863 5861 5861 5859 5858 5857 5855 5853 5852 5850 5848 5846 5844 5842 5840 5838 5835 5833 5830 5828 5825 5823 5820 5817
5859 5861 5863 5865 5867 5868 5868 5869 5869 5869 5868 5866 5865 5863 5862 5861 5861 5861 5859 5858 5857 5855 5854 5853 5852 5851 5849 5847 5846 5844 5843 5840 5838 5836 5833 5831 5828 5826 5823 5821 5818 5815 5812 5809
5853 5856 5856 5861 5861 5861 5862 5862 5863 5862 5861 5860 5859 5858 5856 5855 5855 5855 5854 5852 5850 5849 5847 5847 5846 5844 5843 5841 5839 5838 5836 5834 5831 5829 5826 5824 5821 5818 5816 5813 5810 5807 5803 5800
5847 5848 5850 5853 5854 5854 5855 5854 5854 5855 5854 5853 5852 5852 5849 5848 5849 5848 5847 5845 5844 5842 5840 5839 5838 5837 5836 5834 5832 5830 5828 5826 5823 5821 5818 5816 5813 5810 5808 5805 5801 5798 5795 5792
5840 5841 5844 5846 5847 5847 5849 5847 5847 5847 5847 5846 5846 5845 5842 5841 5841 5841 5840 5838 5837 5835 5833 5832 5831 5830 5828 5826 5825 5823 5820 5818 5815 5813 5810 5807 5805 5802 5799 5796 5793 5790 5787 5783
5833 5834 5838 5838 5838 5840 5841 5839 5839 5839 5839 5838 5837 5837 5835 5834 5834 5833 5832 5831 5829 5828 5826 5825 5824 5822 5820 5819 5817 5815 5812 5810 5807 5805 5802 5799 5796 5793 5791 5788 5785 5781 5778 5775
5826 5828 5832 5829 5830 5831 5832 5831 5831 5831 5831 5830 5829 5829 5829 5828 5826 5826 5825 5823 5822 5820 5819 5817 5816 5814 5812 5811 5808 5806 5804 5801 5799 5796 5793 5791 5788 5785 5782 5779 5776 5772 5769 5766
5818 5821 5821 5820 5821 5821 5822 5823 5823 5824 5823 5823 5822 5821 5821 5820 5819 5818 5817 5815 5814 5812 5811 5809 5807 5806 5804 5802 5799 5797 5795 5793 5790 5787 5785 5782 5779 5776 5773 5770 5767 5763 5760 5757
5809 5811 5812 5812 5812 5813 5813 5814 5815 5814 5814 5814 5813 5813 5812 5812 5811 5810 5809 5807 5806 5804 5802 5801 5799 5797 5795 5793 5790 5788 5786 5784 5781 5779 5776 5773 5770 5767 5764 5761 5758 5754 5751 5747
5802 5802 5803 5804 5804 5804 5805 5806 5806 5805 5805 5805 5805 5804 5804 5803 5802 5801 5800 5798 5797 5795 5793 5792 5790 5788 5786 5784 5782 5779 5777 5775 5772 5770 5767 5765 5761 5758 5755 5752 5748 5745 5742 5738
5793 5793 5795 5795 5796 5796 5797 5798 5798 5797 5798 5797 5797 5796 5795 5795 5793 5792 5791 5790 5788 5786 5785 5783 5781 5779 5777 5775 5773 5771 5769 5766 5764 5761 5759 5756 5753 5750 5746 5743 5740 5736 5732 5729
5784 5784 5786 5787 5787 5788 5789 5790 5789 5789 5789 5789 5788 5787 5787 5786 5785 5783 5782 5781 5780 5778 5776 5774 5772 5770 5768 5767 5764 5762 5760 5758 5755 5753 5750 5748 5745 5741 5738 5735 5730 5727 5723 5720
5776 5777 5778 5779 5780 5781 5780 5780 5781 5781 5781 5780 5779 5779 5778 5777 5776 5775 5774 5772 5771 5770 5768 5766 5764 5762 5760 5758 5756 5754 5752 5749 5747 5745 5742 5739 5736 5733 5729 5726 5722 5718 5715 5711
5769 5770 5770 5771 5772 5773 5772 5772 5773 5773 5773 5772 5771 5770 5769 5768 5768 5767 5765 5764 5763 5761 5759 5757 5756 5754 5752 5750 5748 5746 5743 5741 5739 5736 5733 5730 5727 5724 5721 5717 5714 5711 5707 5703
5761 5762 5762 5763 5764 5764 5765 5764 5764 5765 5764 5764 5762 5761 5760 5760 5759 5758 5757 5755 5754 5752 5751 5749 5747 5745 5743 5741 5739 5737 5735 5733 5730 5728 5725 5722 5719 5716 5713 5709 5706 5702 5699 5695
5753 5754 5754 5755 5756 5756 5757 5756 5757 5756 5756 5755 5754 5753 5752 5751 5751 5749 5748 5746 5745 5744 5742 5740 5738 5736 5734 5733 5731 5728 5726 5724 5722 5719 5716 5714 5711 5708 5705 5702 5698 5695 5691 5688
5744 5745 5746 5747 5746 5747 5748 5748 5748 5748 5747 5746 5746 5745 5744 5743 5742 5741 5739 5737 5736 5735 5733 5731 5729 5727 5726 5724 5723 5720 5718 5716 5713 5711 5708 5706 5703 5700 5697 5694 5691 5688 5685 5681
5735 5736 5737 5738 5738 5738 5739 5739 5740 5739 5738 5738 5737 5736 5735 5735 5733 5733 5731 5730 5728 5727 5725 5723 5721 5720 5718 5716 5714 5712 5710 5708 5706 5703 5700 5698 5695 5692 5690 5687 5684 5681 5678 5675
5728 5728 5729 5729 5730 5730 5731 5731 5731 5731 5730 5730 5729 5728 5728 5727 5726 5724 5723 5722 5720 5718 5716 5715 5713 5711 5709 5708 5706 5704 5703 5700 5698 5695 5693 5691 5688 5685 5683 5680 5678 5675 5672 5669
5720 5720 5721 5721 5722 5722 5723 5723 5722 5722 5722 5722 5721 5721 5720 5719 5718 5717 5715 5714 5712 5710 5708 5707 5705 5703 5701 5700 5698 5696 5694 5693 5690 5688 5685 5683 5681 5678 5676 5673 5670 5668 5665 5663
5713 5713 5714 5714 5714 5714 5714 5714 5714 5714 5714 5714 5713 5712 5712 5711 5710 5709 5707 5706 5704 5702 5701 5699 5698 5696 5694 5692 5690 5689 5687 5685 5683 5680 5678 5676 5673 5671 5668 5666 5664 5662 5659 5657
5706 5706 5706 5706 5705 5706 5706 5706 5705 5706 5706 5706 5705 5705 5704 5703 5702 5700 5699 5698 5696 5695 5693 5692 5690 5688 5687 5685 5683 5681 5680 5678 5676 5673 5671 5669 5666 5664 5662 5659 5657 5655 5653 5650
5699 5699 5699 5698 5698 5698 5697 5696 5696 5698 5699 5699 5698 5697 5696 5695 5694 5693 5691 5690 5688 5687 5686 5684 5683 5681 5679 5677 5676 5674 5672 5671 5669 5666 5664 5662 5660 5658 5655 5653 5650 5648 5646 5643
5693 5692 5692 5692 5692 5691 5691 5689 5690 5690 5691 5691 5690 5690 5689 5688 5687 5686 5684 5683 5681 5680 5678 5677 5675 5674 5672 5670 5668 5667 5665 5664 5662 5660 5657 5655 5653 5650 5648 5646 5643 5641 5639 5636
5687 5687 5687 5686 5686 5684 5684 5684 5684 5684 5683 5683 5683 5683 5682 5681 5680 5678 5677 5675 5674 5672 5671 5669 5668 5666 5664 5663 5661 5660 5658 5657 5655 5653 5650 5648 5645 5643 5641 5638 5636 5634 5631 5629
5682 5681 5681 5681 5680 5680 5679 5679 5679 5679 5678 5678 5677 5677 5676 5674 5673 5671 5670 5668 5667 5665 5663 5662 5660 5659 5657 5655 5654 5653 5651 5650 5648 5646 5643 5641 5638 5636 5633 5631 5628 5626 5624 5621